Flag for Congo Weather past 2 weeks in Pointe-Noire, Congo

Now
82 °F

Scattered clouds.


Feels Like: 91 °F
Forecast: 77 / 86 °F
Wind: 9 mph from South

Location: Pointe Airport-Noire

Current Time: May 4, 2015 at 10:03:35 AM

Latest Report: May 4, 2015 at 9:00 AM


Visibility: N/A

Pressure: 29.89 "Hg

Humidity: 84%

Dew point: 77 °F

Location of Pointe-NoireLocation

Historic Weather in Pointe-Noire — Graph

°F

Pointe-Noire temperature yesterday

Maximum temperature yesterday: 88 °F (at 12:00 PM)
Minimum temperature yesterday: 79 °F (at 2:00 AM)
Average temperature yesterday: 83 °F

Past Weeks' High & Low Weather Summary

 TemperatureHumidityPressure
High88 °F (Apr 20, 2:00 PM)100% (Apr 20, 11:00 PM)29.98 "Hg (Apr 20, 11:00 PM)
Low73 °F (Apr 25, 3:00 AM)55% (Apr 27, 2:00 PM)29.74 "Hg (Apr 30, 4:00 PM)
Average82 °F84%29.86 "Hg
* Reported Apr 19 9:00 AM — May 4 9:00 AM, Pointe-Noire, Weather by CustomWeather, © 2015

Note: Actual official high and low records may vary slightly from our data, if they occured in-between our weather recording intervals... More about our weather records

Advertising

Pointe-Noire weather history for previous 24 hours

 ConditionsComfort  
Time TempWeatherWind HumidityBarometerVisibility
9:00 AM
Mon, May 4
82 °FScattered clouds.9 mph84%29.89 "HgN/A
8:00 AM82 °FScattered clouds.7 mph84%29.89 "HgN/A
7:00 AM81 °FBroken clouds.6 mph94%29.86 "Hg5 mi
6:00 AM81 °FPartly cloudy.5 mph94%29.83 "Hg4 mi
5:00 AM81 °FPartly cloudy.5 mph94%29.83 "Hg4 mi
4:00 AM81 °FPassing clouds.2 mph94%29.83 "Hg4 mi
2:00 AM81 °FPassing clouds.3 mph94%29.83 "Hg4 mi
1:00 AM81 °FPartly cloudy.1 mph94%29.89 "HgN/A
12:00 AM81 °FPartly cloudy.3 mph94%29.89 "HgN/A
11:00 PM
Sun, May 3
81 °FPassing clouds.3 mph94%29.89 "HgN/A
10:00 PM82 °FPassing clouds.3 mph89%29.89 "HgN/A
9:00 PM82 °FPassing clouds.6 mph89%29.86 "HgN/A
8:00 PM82 °FPassing clouds.6 mph89%29.83 "HgN/A
7:00 PM82 °FPassing clouds.7 mph89%29.83 "HgN/A
6:00 PM84 °FBroken clouds.8 mph84%29.80 "HgN/A
5:00 PM84 °FScattered clouds.9 mph84%29.80 "HgN/A
4:00 PM86 °FPartly sunny.10 mph79%29.77 "HgN/A
3:00 PM86 °FPassing clouds.10 mph79%29.77 "HgN/A
2:00 PM86 °FScattered clouds.13 mph75%29.77 "HgN/A
1:00 PM88 °FBroken clouds.9 mph70%29.83 "HgN/A
12:00 PM88 °FBroken clouds.9 mph75%29.86 "HgN/A
11:00 AM86 °FBroken clouds.12 mph75%29.89 "HgN/A
10:00 AM86 °FBroken clouds.9 mph70%29.89 "HgN/A
Weather by CustomWeather, © 2015

See weather overviewHow to use our weather pages